Date String (YYYY-MM-DD hh:mm:ss) UTC,Instrument flags,Ambient pressure (hPa),Sample flow (lpm),Bypass flow (lpm),Sample temperature (°C),Ambient temperature (°C),ASC tube jacket temperature (°C),LED temperature (°C),Box temperature (°C),Sample RH (%),Span deviation,Mass concentration (μg/m³),Mass concentration (μg/m³),Mass concentration (μg/m³)
DateTimeUTC,F1_M11,P_M11,Q1_M11,Q2_M11,T1_M11,T2_M11,T3_M11,T4_M11,T5_M11,U1_M11,ZSPAN_M11,X2_M11,X0_M11,X1_M11
2022-12-02 04:00:00,,0812.2,5.00,0.00,25.2,23.6,00.0,34.1,27.0,08.0,0000.0,0000.47,0003.70,0000.32
2022-12-02 04:01:00,,0812.2,5.00,0.00,25.1,23.4,00.0,34.1,26.9,08.2,0000.0,0000.47,0003.28,0000.33
2022-12-02 04:02:00,,0812.1,4.99,0.00,25.1,23.4,00.0,34.1,26.9,08.0,0000.0,0000.50,0003.24,0000.33
2022-12-02 04:03:00,,0812.1,5.00,0.00,25.1,23.4,00.0,34.1,26.9,08.1,0000.0,0000.49,0003.15,0000.33
2022-12-02 04:04:00,,0812.2,5.00,0.00,25.1,23.4,00.0,34.1,26.9,08.3,0000.0,0000.48,0003.09,0000.34
2022-12-02 04:05:00,,0812.2,5.00,0.00,25.1,23.4,00.0,34.1,26.9,08.2,0000.0,0000.50,0002.54,0000.35
2022-12-02 04:06:00,,0812.4,5.00,0.00,25.1,23.4,00.0,34.1,26.9,08.3,0000.0,0000.51,0002.12,0000.36
2022-12-02 04:07:00,,0812.5,4.99,0.00,25.1,23.4,00.0,34.0,26.9,08.4,0000.0,0000.50,0002.14,0000.35
2022-12-02 04:08:00,,0812.4,4.98,0.00,25.0,23.3,00.0,34.0,26.8,08.3,0000.0,0000.51,0002.18,0000.35
2022-12-02 04:09:00,,0812.2,5.02,0.00,25.0,23.3,00.0,34.0,26.8,08.2,0000.0,0000.54,0002.24,0000.36
2022-12-02 04:10:00,,0812.2,5.00,0.00,25.0,23.3,00.0,34.0,26.8,08.3,0000.0,0000.60,0002.43,0000.36
2022-12-02 04:11:00,,0812.2,5.00,0.00,25.0,23.3,00.0,34.0,26.8,08.4,0000.0,0000.62,0002.06,0000.37
2022-12-02 04:12:00,,0812.4,5.00,0.00,25.0,23.3,00.0,34.0,26.8,08.4,0000.0,0000.63,0002.23,0000.37
2022-12-02 04:13:00,,0812.1,5.01,0.00,25.0,23.3,00.0,34.0,26.8,08.6,0000.0,0000.62,0002.33,0000.38
2022-12-02 04:14:00,,0812.1,5.00,0.00,24.9,23.3,00.0,34.0,26.8,08.4,0000.0,0000.63,0002.54,0000.39
2022-12-02 04:15:00,,0812.1,5.00,0.00,24.9,23.3,00.0,33.9,26.7,08.5,0000.0,0000.65,0002.56,0000.40
2022-12-02 04:16:00,,0812.2,5.00,0.00,24.9,23.2,00.0,33.9,26.7,08.4,0000.0,0000.66,0002.56,0000.40
2022-12-02 04:17:00,,0812.3,4.99,0.00,24.9,23.2,00.0,33.9,26.7,08.9,0000.0,0000.65,0002.21,0000.40
2022-12-02 04:18:00,,0812.2,5.00,0.00,24.9,23.3,00.0,33.9,26.7,08.7,0000.0,0000.68,0002.17,0000.41
2022-12-02 04:19:00,,0812.2,5.00,0.00,24.9,23.3,00.0,33.9,26.7,08.7,0000.0,0000.71,0002.24,0000.42
2022-12-02 04:20:00,,0812.2,5.00,0.00,24.9,23.3,00.0,33.9,26.7,08.6,0000.0,0000.73,0002.31,0000.42
2022-12-02 04:21:00,,0812.4,5.00,0.00,24.9,23.3,00.0,33.9,26.7,08.6,0000.0,0000.67,0002.13,0000.42
2022-12-02 04:22:00,,0812.5,5.00,0.00,24.8,23.2,00.0,33.8,26.6,08.6,0000.0,0000.66,0001.81,0000.41
2022-12-02 04:23:00,,0812.4,5.00,0.00,24.8,23.1,00.0,33.8,26.6,08.6,0000.0,0000.65,0001.47,0000.41
2022-12-02 04:24:00,,0812.2,5.00,0.00,24.8,23.1,00.0,33.8,26.6,08.4,0000.0,0000.67,0001.70,0000.41
2022-12-02 04:25:00,,0812.2,5.00,0.00,24.8,23.1,00.0,33.8,26.6,08.3,0000.0,0000.68,0001.69,0000.41
2022-12-02 04:26:00,,0812.2,5.00,0.00,24.8,23.1,00.0,33.8,26.6,08.4,0000.0,0000.68,0001.72,0000.40
2022-12-02 04:27:00,,0812.4,5.01,0.00,24.7,23.0,00.0,33.8,26.6,08.5,0000.0,0000.67,0001.78,0000.40
2022-12-02 04:28:00,,0812.5,5.00,0.00,24.7,23.1,00.0,33.8,26.5,08.5,0000.0,0000.66,0002.23,0000.40
2022-12-02 04:29:00,,0812.2,4.99,0.00,24.7,23.0,00.0,33.8,26.5,08.5,0000.0,0000.67,0003.44,0000.40
2022-12-02 04:30:00,,0812.2,5.01,0.00,24.7,22.9,00.0,33.8,26.5,08.9,0000.0,0000.64,0003.48,0000.39
2022-12-02 04:31:00,,0812.1,5.00,0.00,24.7,22.9,00.0,33.7,26.5,09.0,0000.0,0000.61,0003.44,0000.38
2022-12-02 04:32:00,,0812.2,5.01,0.00,24.7,23.0,00.0,33.7,26.4,08.8,0000.0,0000.66,0003.58,0000.38
2022-12-02 04:33:00,,0812.2,4.99,0.00,24.6,23.0,00.0,33.7,26.4,08.6,0000.0,0000.70,0004.15,0000.38
2022-12-02 04:34:00,,0812.2,5.00,0.00,24.6,23.0,00.0,33.7,26.4,08.7,0000.0,0000.75,0004.67,0000.38
2022-12-02 04:35:00,,0812.1,5.01,0.00,24.6,23.1,00.0,33.7,26.4,08.7,0000.0,0000.77,0004.64,0000.38
2022-12-02 04:36:00,,0812.0,5.01,0.00,24.6,23.1,00.0,33.7,26.4,08.8,0000.0,0000.76,0004.40,0000.38
2022-12-02 04:37:00,,0812.1,4.99,0.00,24.6,23.1,00.0,33.7,26.4,08.8,0000.0,0000.74,0004.29,0000.37
2022-12-02 04:38:00,,0812.1,4.99,0.00,24.6,23.1,00.0,33.6,26.4,08.9,0000.0,0000.74,0004.21,0000.37
2022-12-02 04:39:00,,0812.1,5.01,0.00,24.6,23.1,00.0,33.6,26.4,09.0,0000.0,0000.76,0003.64,0000.37
2022-12-02 04:40:00,,0812.0,5.00,0.00,24.6,23.1,00.0,33.6,26.4,09.0,0000.0,0000.74,0002.78,0000.38
2022-12-02 04:41:00,,0812.0,5.00,0.00,24.6,23.0,00.0,33.6,26.4,09.3,0000.0,0000.74,0002.82,0000.38
2022-12-02 04:42:00,,0812.1,5.00,0.00,24.6,23.0,00.0,33.6,26.4,09.8,0000.0,0000.74,0002.82,0000.38
2022-12-02 04:43:00,,0812.1,5.00,0.00,24.6,23.1,00.0,33.6,26.4,09.4,0000.0,0000.68,0002.64,0000.38
2022-12-02 04:44:00,,0812.2,5.01,0.00,24.6,23.1,00.0,33.6,26.4,09.0,0000.0,0000.66,0002.06,0000.37
2022-12-02 04:45:00,,0811.9,5.00,0.00,24.6,23.1,00.0,33.6,26.5,09.1,0000.0,0000.64,0001.64,0000.37
2022-12-02 04:46:00,,0812.0,5.00,0.00,24.6,23.2,00.0,33.6,26.5,09.0,0000.0,0000.61,0002.45,0000.37
2022-12-02 04:47:00,,0812.1,5.00,0.00,24.6,23.2,00.0,33.6,26.5,09.2,0000.0,0000.61,0003.02,0000.37
2022-12-02 04:48:00,,0812.3,4.99,0.00,24.6,23.2,00.0,33.6,26.5,09.5,0000.0,0000.60,0003.12,0000.37
2022-12-02 04:49:00,,0812.0,5.02,0.00,24.6,23.3,00.0,33.6,26.5,09.2,0000.0,0000.63,0003.21,0000.37
2022-12-02 04:50:00,,0812.1,5.00,0.00,24.7,23.3,00.0,33.6,26.5,08.9,0000.0,0000.62,0003.22,0000.36
2022-12-02 04:51:00,,0812.2,4.99,0.00,24.7,23.3,00.0,33.6,26.5,08.9,0000.0,0000.64,0003.05,0000.35
2022-12-02 04:52:00,,0811.9,5.00,0.00,24.6,23.2,00.0,33.6,26.5,08.8,0000.0,0000.65,0002.91,0000.35
2022-12-02 04:53:00,,0812.1,5.00,0.00,24.7,23.2,00.0,33.6,26.5,08.9,0000.0,0000.62,0002.83,0000.35
2022-12-02 04:54:00,,0812.1,5.01,0.00,24.7,23.2,00.0,33.6,26.5,08.9,0000.0,0000.63,0002.86,0000.35
2022-12-02 04:55:00,,0812.0,4.99,0.00,24.6,23.1,00.0,33.6,26.5,09.4,0000.0,0000.64,0002.84,0000.34
2022-12-02 04:56:00,,0812.1,5.00,0.00,24.6,23.2,00.0,33.6,26.5,09.4,0000.0,0000.60,0002.78,0000.33
2022-12-02 04:57:00,,0812.1,5.01,0.00,24.6,23.2,00.0,33.6,26.5,09.2,0000.0,0000.58,0001.98,0000.32
2022-12-02 04:58:00,,0812.1,5.01,0.00,24.6,23.2,00.0,33.5,26.5,09.1,0000.0,0000.60,0001.33,0000.31
2022-12-02 04:59:00,,0812.1,5.01,0.00,24.7,23.3,00.0,33.6,26.6,09.0,0000.0,0000.63,0001.42,0000.31
